This demonstration page uses our WeatherBlox Daily Observations layout. Learn more.

Left ArrowRight Arrow

39.12711, -84.51439

Hourly Observations for October 2, 2021

Temp ( °F °C ) Dew Point ( °F °C ) Humidity (%) Winds ( mph kmh ) Pressure ( in mb ) Visibility ( mi km ) Precip ( " mm )
12:36 am 00:36 Clear with Mist and Fog 52 11.1 52 11.1 100 100 Calm 30.22 1023 3 4 0.00 0.00
12:44 am 00:44 Clear with Mist and Fog 52 11.1 52 11.1 100 100 Calm 30.21 1023 5 8 0.00 0.00
12:53 am 00:53 Clear with Mist and Fog 52 11.1 52 11.1 100 100 Calm 30.20 1023 5 8 0.00 0.00
1:53 am 01:53 Clear 50 10 50 10 100 100 Calm 30.19 1022 9 14 0.00 0.00
2:25 am 02:25 Clear with Mist and Fog 51 10.6 51 10.6 100 100 Calm 30.21 1023 2 2 0.00 0.00
2:44 am 02:44 Clear with Fog 50 10 50 10 100 100 NE 3 6 30.20 1023 1 1 0.00 0.00
2:53 am 02:53 Clear with Mist and Fog 50 10 50 10 100 100 Calm 30.19 1022 3 5 0.00 0.00
3:10 am 03:10 Clear with Mist and Fog 50 10 50 10 100 100 Calm 30.21 1023 2 2 0.00 0.00
3:21 am 03:21 Clear with Fog 50 10 50 10 100 100 E 3 6 30.20 1023 1 1 0.00 0.00
3:34 am 03:34 Clear with Mist and Fog 50 10 50 10 100 100 NE 3 6 30.20 1023 2 2 0.00 0.00
3:36 am 03:36 Clear with Mist and Fog 51 10.6 51 10.6 100 100 NE 3 6 30.21 1023 3 5 0.00 0.00
3:53 am 03:53 Mostly Clear 49 9.4 49 9.4 100 100 NE 3 6 30.18 1022 9 14 0.00 0.00
4:53 am 04:53 Clear 51 10.6 51 10.6 100 100 NNE 3 6 30.17 1022 9 14 0.00 0.00
5:28 am 05:28 Clear with Mist and Fog 49 9.4 49 9.4 100 100 Calm 30.19 1022 2 2 0.00 0.00
5:43 am 05:43 Mostly Clear 50 10 50 10 100 100 Calm 30.19 1022 7 11 0.00 0.00
5:53 am 05:53 Partly Cloudy with Mist and Fog 50 10 50 10 100 100 Calm 30.18 1022 6 10 0.00 0.00
6:06 am 06:06 Mostly Cloudy with Mist and Fog 50 10 50 10 100 100 Calm 30.19 1022 6 10 0.00 0.00
6:17 am 06:17 Cloudy with Mist and Fog 49 9.4 49 9.4 100 100 Calm 30.18 1022 2 3 0.00 0.00
6:24 am 06:24 Cloudy with Mist and Fog 50 10 50 10 100 100 Calm 30.18 1022 2 2 0.00 0.00
6:33 am 06:33 Cloudy with Mist and Fog 51 10.6 51 10.6 100 100 NE 3 6 30.18 1022 3 4 0.00 0.00
6:36 am 06:36 Cloudy with Mist and Fog 50 10 50 10 100 100 Calm 30.18 1022 1 1 0.00 0.00
6:53 am 06:53 Cloudy with Mist and Fog 49 9.4 49 9.4 100 100 Calm 30.16 1022 1 2 0.00 0.00
6:55 am 06:55 Cloudy with Mist and Fog 50 10 50 10 100 100 Calm 30.18 1022 4 6 0.00 0.00
7:02 am 07:02 Cloudy with Fog 50 10 50 10 100 100 Calm 30.18 1022 1 1 0.00 0.00
7:53 am 07:53 Partly Cloudy with Mist and Fog 50 10 50 10 100 100 Calm 30.17 1022 6 10 0.00 0.00
8:53 am 08:53 Sunny 55 12.8 54 12.2 96 96 Calm 30.16 1022 10 16 0.00 0.00
9:53 am 09:53 Sunny 60 15.6 56 13.3 86 86 Calm 30.15 1021 10 16 0.00 0.00
10:53 am 10:53 Sunny 64 17.8 58 14.4 81 81 SW 5 7 30.15 1021 10 16 0.00 0.00
11:53 am 11:53 Mostly Cloudy 69 20.6 61 16.1 76 76 Calm 30.14 1021 10 16 0.00 0.00
12:53 pm 12:53 Mostly Sunny 72 22.2 63 17.2 73 73 S 5 7 30.12 1020 10 16 0.00 0.00
1:53 pm 13:53 Mostly Cloudy 75 23.9 66 18.9 74 74 S 7 11 30.11 1020 10 16 0.00 0.00
2:53 pm 14:53 Mostly Sunny 79 26.1 66 18.9 65 65 SW 5 7 30.08 1019 10 16 0.00 0.00
3:53 pm 15:53 Mostly Cloudy 81 27.2 68 20 65 65 S 7 11 30.05 1018 10 16 0.00 0.00
4:53 pm 16:53 Sunny 79 26.1 67 19.4 67 67 SSW 8 13 30.04 1017 10 16 0.00 0.00
5:53 pm 17:53 Sunny 78 25.6 69 20.6 74 74 S 3 6 30.03 1017 10 16 0.00 0.00
6:53 pm 18:53 Mostly Sunny 74 23.3 69 20.6 85 85 Calm 30.02 1017 10 16 0.00 0.00
7:53 pm 19:53 Partly Cloudy 71 21.7 68 20 90 90 SSW 6 9 30.03 1017 10 16 0.00 0.00
8:53 pm 20:53 Cloudy 70 21.1 69 20.6 97 97 Calm 30.03 1017 9 14 0.02 0.51
9:53 pm 21:53 Partly Cloudy 69 20.6 69 20.6 100 100 Calm 30.02 1017 7 11 0.00 0.00
10:53 pm 22:53 Mostly Cloudy with Mist and Fog 69 20.6 69 20.6 100 100 Calm 30.03 1017 5 8 0.00 0.00
11:53 pm 23:53 Cloudy with Light Rain 69 20.6 67 19.4 93 93 S 6 9 30.02 1017 10 16 0.01 0.25

Powered by AerisWeather